Find Starlink 37906

NORAD ID: 100476 Int'l Des: 2026-196 Owner: SPXS Country: US Constellation: starlink operational

Current View

Loading 3D Globe...

About Starlink 37906

Starlink 37906 (NORAD 100476) is a starlink constellation satellite launched Aug 25, 2026 by SPXS of US. with a mass of 575.00 kg.

Upcoming Passes

Passes for default location (London). Set your location on the main map for personalized predictions.

Altitude History

Loading altitude history...

Two-Line Element Set

1 A0476U 26196D 26251.64020822 .00108816 00000-0 57235-3 0 9990
2 A0476 53.1584 300.8769 0001363 35.6423 324.4690 15.79919571 3481
Epoch: Sep 8, 2026 • Age: 4 hours

Current Status

Altitude 331.5 km
Apogee / Perigee N/A
Velocity 7.71 km/s
Sub-Earth Point 6.89°N, 159.78°W
Launch Date Aug 25, 2026
Age 14 days
Type internet

Technical Details

Classification Payload
Mass 575.00 kg
Dry Mass 530.00 kg
Total Mass 575.00 kg
Length 0.30 m
Diameter 4.10 m
Span 29.00 m
Shape Box + pan
Manufacturer SPXS
Bus Type Starlink V2MO
Phase Status In Orbit
Owner/State SPXS/US

Most Searched